Warsaw, IN

5:47 AM EDT on April 29, 2017 (GMT -0400)
Warsaw Municipal

Weather History for KASW - April, 2012

Change the Weather History Date:

Monday, April 16, 2012

  Actual Average Record
Temperature  
Mean Temperature 56 °F -  
Max Temperature 68 °F 61 °F 81 °F (1976)
Min Temperature 44 °F 41 °F 23 °F (2014)
Degree Days  
Heating Degree Days 9    
Growing Degree Days 6 (Base 50)    
Moisture  
Dew Point 47 °F    
Average Humidity 69    
Maximum Humidity 94    
Minimum Humidity 54    
Precipitation  
Precipitation 0.23 in - - ()
Sea Level Pressure  
Sea Level Pressure 29.87 in    
Wind  
Wind Speed 14 mph (SW)    
Max Wind Speed 29 mph    
Max Gust Speed 43 mph    
Visibility 10 miles    
Events Rain    
Averages and records for this station are not official NWS values.
T = Trace of Precipitation, MM = Missing Value Source: NWS Daily Summary

Daily Weather History Graph

Daily Weather History Graph

Search for Another Location

Airport or City:

Trip Planner

Search our weather history database for the weather conditions in past years. The results will help you decide how hot, cold, wet, or windy it might be!

Date:

Astronomy

Apr. 16, 2012 Rise Set
Actual Time 7:01 AM EDT 8:25 PM EDT
Civil Twilight 6:32 AM EDT 8:53 PM EDT
Nautical Twilight 5:58 AM EDT 9:28 PM EDT
Astronomical Twilight 5:21 AM EDT 10:05 PM EDT
Moon 4:32 AM EDT (4/16) 4:16 PM EDT (4/16)
Length of Visible Light 14h 21m
Length of Day
13h 23m
Waning Crescent, 19% of the Moon is Illuminated
Apr 16
Waning Crescent
Apr 21
New
Apr 29
First Quarter
May 5
Full
May 12
Last Quarter

Hourly Weather History & Observations

Time (EDT) Temp. Windchill Dew Point Humidity Pressure Visibility Wind Dir Wind Speed Gust Speed Precip Events Conditions
12:15 AM 68.0 °F - 55.4 °F 64% 29.77 in 10.0 mi South 10.4 mph 17.3 mph N/A   Mostly Cloudy
12:35 AM 68.0 °F - 55.4 °F 64% 29.76 in 10.0 mi South 9.2 mph 17.3 mph N/A   Overcast
12:55 AM 68.0 °F - 55.4 °F 64% 29.76 in 10.0 mi SSW 9.2 mph - N/A   Overcast
1:15 AM 68.0 °F - 55.4 °F 64% 29.75 in 7.0 mi SSW 9.2 mph - N/A Rain Rain
1:35 AM 68.0 °F - 57.2 °F 68% 29.74 in 10.0 mi SSW 8.1 mph - N/A Rain Light Rain
1:55 AM 68.0 °F - 55.4 °F 64% 29.72 in 10.0 mi South 11.5 mph 19.6 mph N/A   Overcast
2:15 AM 68.0 °F - 55.4 °F 64% 29.71 in 10.0 mi South 9.2 mph 19.6 mph N/A   Overcast
2:35 AM 68.0 °F - 55.4 °F 64% 29.70 in 10.0 mi South 10.4 mph 16.1 mph N/A   Overcast
2:55 AM 68.0 °F - 55.4 °F 64% 29.69 in 10.0 mi South 6.9 mph - N/A   Overcast
3:15 AM 68.0 °F - 57.2 °F 68% 29.68 in 10.0 mi South 10.4 mph 17.3 mph N/A   Mostly Cloudy
3:55 AM 68.0 °F - 57.2 °F 68% 29.67 in 10.0 mi South 8.1 mph 21.9 mph N/A   Overcast
4:15 AM 68.0 °F - 57.2 °F 68% 29.71 in 10.0 mi WSW 19.6 mph 27.6 mph N/A   Overcast
4:35 AM 62.6 °F - 60.8 °F 94% 29.70 in - SW 4.6 mph 18.4 mph 0.10 in   Unknown
4:55 AM 62.6 °F - 60.8 °F 94% 29.70 in 10.0 mi South 4.6 mph - 0.12 in Rain Light Rain
5:15 AM 62.6 °F - 60.8 °F 94% 29.69 in 10.0 mi South 8.1 mph 17.3 mph 0.01 in Rain Rain
5:55 AM 62.6 °F - 60.8 °F 94% 29.68 in 10.0 mi SSW 10.4 mph 21.9 mph 0.07 in Rain Rain
6:15 AM 62.6 °F - 60.8 °F 94% 29.69 in 10.0 mi South 11.5 mph 24.2 mph 0.01 in Rain Light Rain
6:35 AM 62.6 °F - 60.8 °F 94% 29.68 in 7.0 mi South 10.4 mph 27.6 mph 0.03 in Rain Light Rain
6:55 AM 62.6 °F - 59.0 °F 88% 29.67 in 10.0 mi SSW 13.8 mph 25.3 mph 0.04 in Rain Rain
7:15 AM 62.6 °F - 59.0 °F 88% 29.67 in 10.0 mi SSW 9.2 mph 18.4 mph N/A   Overcast
7:55 AM 60.8 °F - 57.2 °F 88% 29.68 in 10.0 mi SW 12.7 mph 25.3 mph N/A   Scattered Clouds
8:15 AM 60.8 °F - 55.4 °F 82% 29.69 in 10.0 mi SSW 12.7 mph 20.7 mph N/A   Scattered Clouds
8:35 AM 60.8 °F - 55.4 °F 82% 29.71 in 10.0 mi SW 13.8 mph 23.0 mph N/A   Scattered Clouds
8:55 AM 60.8 °F - 53.6 °F 77% 29.71 in 10.0 mi SW 12.7 mph 24.2 mph N/A   Mostly Cloudy
9:15 AM 60.8 °F - 51.8 °F 72% 29.71 in 10.0 mi WSW 19.6 mph 26.5 mph N/A   Overcast
9:35 AM 60.8 °F - 50.0 °F 68% 29.72 in 10.0 mi SW 17.3 mph 27.6 mph N/A   Mostly Cloudy
9:55 AM 59.0 °F - 48.2 °F 67% 29.72 in 10.0 mi WSW 21.9 mph 34.5 mph N/A   Mostly Cloudy
10:15 AM 60.8 °F - 48.2 °F 63% 29.73 in 10.0 mi WSW 26.5 mph 35.7 mph N/A   Overcast
10:35 AM 59.0 °F - 46.4 °F 63% 29.75 in 10.0 mi WSW 19.6 mph 34.5 mph N/A   Overcast
10:55 AM 59.0 °F - 46.4 °F 63% 29.75 in 10.0 mi WSW 21.9 mph 33.4 mph N/A   Mostly Cloudy
11:15 AM 59.0 °F - 46.4 °F 63% 29.77 in 10.0 mi WSW 24.2 mph 34.5 mph N/A   Overcast
11:35 AM 57.2 °F - 46.4 °F 67% 29.78 in 10.0 mi WSW 18.4 mph 34.5 mph N/A   Overcast
11:55 AM 57.2 °F - 48.2 °F 72% 29.79 in 10.0 mi WSW 15.0 mph 23.0 mph N/A   Overcast
12:15 PM 55.4 °F - 48.2 °F 77% 29.81 in 10.0 mi West 21.9 mph 32.2 mph N/A   Overcast
12:35 PM 55.4 °F - 46.4 °F 72% 29.81 in 10.0 mi WSW 18.4 mph 24.2 mph N/A   Overcast
12:55 PM 57.2 °F - 44.6 °F 63% 29.82 in 10.0 mi WSW 23.0 mph 36.8 mph N/A   Overcast
1:15 PM 57.2 °F - 42.8 °F 59% 29.83 in 10.0 mi WSW 24.2 mph 39.1 mph N/A   Overcast
1:35 PM 57.2 °F - 42.8 °F 59% 29.85 in 10.0 mi WSW 28.8 mph 42.6 mph N/A   Overcast
1:55 PM 59.0 °F - 44.6 °F 59% 29.86 in 10.0 mi WSW 26.5 mph 38.0 mph N/A   Overcast
2:15 PM 57.2 °F - 44.6 °F 63% 29.87 in 10.0 mi WSW 20.7 mph 36.8 mph N/A   Overcast
2:35 PM 57.2 °F - 42.8 °F 59% 29.88 in 10.0 mi WSW 25.3 mph 38.0 mph N/A   Overcast
2:55 PM 55.4 °F - 42.8 °F 63% 29.89 in 10.0 mi WSW 25.3 mph 40.3 mph N/A   Overcast
3:15 PM 53.6 °F - 42.8 °F 67% 29.91 in 10.0 mi WSW 25.3 mph 38.0 mph N/A   Overcast
3:35 PM 53.6 °F - 42.8 °F 67% 29.93 in 10.0 mi WSW 20.7 mph 38.0 mph N/A   Overcast
3:55 PM 51.8 °F - 41.0 °F 67% 29.95 in 10.0 mi WSW 26.5 mph 36.8 mph N/A   Overcast
4:15 PM 53.6 °F - 42.8 °F 67% 29.95 in 10.0 mi WSW 20.7 mph 35.7 mph N/A   Overcast
4:35 PM 53.6 °F - 41.0 °F 62% 29.97 in 10.0 mi West 25.3 mph 34.5 mph N/A   Overcast
4:55 PM 51.8 °F - 41.0 °F 67% 29.98 in 10.0 mi West 27.6 mph 35.7 mph N/A   Overcast
5:15 PM 53.6 °F - 39.2 °F 58% 29.99 in 10.0 mi WSW 23.0 mph 32.2 mph N/A   Overcast
5:35 PM 53.6 °F - 37.4 °F 54% 30.00 in 10.0 mi West 25.3 mph 33.4 mph N/A   Overcast
5:55 PM 53.6 °F - 37.4 °F 54% 30.02 in 10.0 mi West 19.6 mph 33.4 mph N/A   Overcast
6:15 PM 51.8 °F - 37.4 °F 58% 30.03 in 10.0 mi WSW 20.7 mph 29.9 mph N/A   Overcast
6:35 PM 51.8 °F - 39.2 °F 62% 30.04 in 10.0 mi WSW 16.1 mph 21.9 mph N/A   Overcast
6:55 PM 53.6 °F - 37.4 °F 54% 30.06 in 10.0 mi West 21.9 mph 32.2 mph N/A   Mostly Cloudy
7:15 PM 53.6 °F - 37.4 °F 54% 30.07 in 10.0 mi West 18.4 mph 26.5 mph N/A   Scattered Clouds
7:35 PM 53.6 °F - 37.4 °F 54% 30.08 in 10.0 mi West 13.8 mph 23.0 mph N/A   Clear
7:55 PM 51.8 °F - 37.4 °F 58% 30.09 in 10.0 mi West 16.1 mph 24.2 mph N/A   Clear
8:15 PM 51.8 °F - 37.4 °F 58% 30.11 in 10.0 mi West 10.4 mph - N/A   Clear
8:35 PM 50.0 °F - 39.2 °F 66% 30.12 in 10.0 mi West 11.5 mph - N/A   Clear
8:55 PM 50.0 °F - 37.4 °F 62% 30.13 in 10.0 mi West 13.8 mph - N/A   Clear
9:15 PM 50.0 °F - 37.4 °F 62% 30.14 in 10.0 mi West 15.0 mph - N/A   Clear
9:35 PM 50.0 °F - 37.4 °F 62% 30.15 in 10.0 mi West 12.7 mph - N/A   Clear
9:55 PM 48.2 °F - 37.4 °F 66% 30.17 in 10.0 mi West 10.4 mph - N/A   Clear
10:15 PM 46.4 °F 42.4 °F 37.4 °F 71% 30.18 in 10.0 mi West 8.1 mph - N/A   Clear
10:35 PM 44.6 °F 41.4 °F 37.4 °F 76% 30.18 in 10.0 mi West 5.8 mph - N/A   Clear
10:55 PM 44.6 °F 42.2 °F 37.4 °F 76% 30.18 in 10.0 mi West 4.6 mph - N/A   Clear
11:15 PM 44.6 °F 40.7 °F 37.4 °F 76% 30.19 in 10.0 mi West 6.9 mph - N/A   Clear
11:35 PM 44.6 °F 40.7 °F 37.4 °F 76% 30.20 in 10.0 mi WSW 6.9 mph - N/A   Clear
11:55 PM 44.6 °F 41.4 °F 37.4 °F 76% 30.21 in 10.0 mi West 5.8 mph - N/A   Clear